Simultaneous Nadir Overpasses (SNOs) Predictions

Prediction of SNOs between FY3D and LANDSAT-8 Satellite Orbit:

Table of predicted SNOs for the next 14.0 days since TLE Epoch: 12/19/2020
Index Date (FY3D) Time (FY3D) Lat,Lon (FY3D) SZA (FY3D ) Date (LANDSAT-8) Time (LANDSAT-8) Lat,Lon (LANDSAT-8) SZA (LANDSAT-8 ) Distance(km) Time Diff (sec)
1 12/20/2020 19:44:27 -70.75, 61.14 85.91 12/20/2020 19:44:54 -70.74, 61.18 85.92 2.11 27
2 12/20/2020 20:35:10 70.62,-131.33 93.96 12/20/2020 20:34:21 70.64,-131.33 93.98 1.98 49
3 12/23/2020 12:00:48 -70.74, 177.09 85.93 12/23/2020 12:01:23 -70.72, 177.02 85.96 3.47 35
4 12/23/2020 12:51:32 70.66, -15.47 93.99 12/23/2020 12:50:49 70.67, -15.41 94.00 2.35 43
5 12/26/2020 04:17:10 -70.78, -67.05 85.96 12/26/2020 04:17:50 -70.80, -66.98 85.95 3.32 40
6 12/26/2020 05:07:53 70.65, 100.48 93.91 12/26/2020 05:07:18 70.63, 100.42 93.90 2.55 35
7 12/28/2020 20:33:30 -70.77, 48.89 86.09 12/28/2020 20:34:18 -70.76, 48.85 86.11 1.82 48
8 12/28/2020 21:24:14 70.69,-143.66 93.82 12/28/2020 21:23:44 70.70,-143.59 93.84 3.22 30
9 12/31/2020 12:49:51 -70.76, 164.83 86.28 12/31/2020 12:50:46 -70.77, 164.75 86.27 3.26 55
10 12/31/2020 13:40:35 70.67, -27.72 93.64 12/31/2020 13:40:13 70.66, -27.78 93.62 2.85 22



Historial Predications of SNOs between FY3D and LANDSAT-8
